Date String (YYYY-MM-DD hh:mm:ss) UTC,Instrument flags,absolute air pressure of the measurement (hPa),sample flow rate (lpm),inlet stack bypass flow (lpm),air temperature of the measurement (°C),ambient temperature measured by the external sensor (°C),aerosol sample conditioner tube jacket temperature (°C),OPC LED temperature (°C),internal box temperature (°C),relative humidity of the measurement (%),span deviation,mass concentration of particles derived from Lorenz-Mie calculation of OPC scattering (μg/m³),mass concentration of particles derived from Lorenz-Mie calculation of OPC scattering (μg/m³),mass concentration of particles derived from Lorenz-Mie calculation of OPC scattering (μg/m³)
DateTimeUTC,F1_M11,P_M11,Q1_M11,Q2_M11,T1_M11,T2_M11,T3_M11,T4_M11,T5_M11,U1_M11,ZSPAN_M11,X0_M11,X2_M11,X1_M11
2023-11-28 11:00:00,SystemResetWarning,0831.2,5.00,000.00,018.8,017.8,000.0,027.2,020.0,9.0,0000.0,0001.55,0000.96,0000.79
2023-11-28 11:01:00,SystemResetWarning,0831.2,5.00,000.00,018.8,017.8,000.0,027.2,020.0,8.9,0000.0,0001.62,0000.98,0000.79
2023-11-28 11:02:00,SystemResetWarning,0831.2,5.00,000.00,018.8,017.8,000.0,027.2,020.0,8.9,0000.0,0001.67,0000.98,0000.79
2023-11-28 11:03:00,SystemResetWarning,0831.2,5.00,000.00,018.8,017.8,000.0,027.2,020.0,8.9,0000.0,0001.58,0000.96,0000.79
2023-11-28 11:04:00,SystemResetWarning,0831.2,5.00,000.00,018.8,017.8,000.0,027.2,020.0,8.9,0000.0,0001.54,0000.95,0000.79
2023-11-28 11:05:00,SystemResetWarning,0831.2,5.00,000.00,018.8,017.8,000.0,027.2,020.0,9.2,0000.0,0001.51,0000.93,0000.78
2023-11-28 11:06:00,SystemResetWarning,0831.2,5.00,000.00,018.8,017.8,000.0,027.2,020.0,9.2,0000.0,0001.44,0000.93,0000.78
2023-11-28 11:07:00,SystemResetWarning,0831.2,5.00,000.00,018.8,017.8,000.0,027.2,020.0,9.2,0000.0,0001.49,0000.95,0000.79
2023-11-28 11:08:00,SystemResetWarning,0831.1,5.00,000.00,018.8,017.8,000.0,027.2,020.0,9.3,0000.0,0001.33,0000.94,0000.79
2023-11-28 11:09:00,SystemResetWarning,0831.1,5.00,000.00,018.8,017.8,000.0,027.2,020.0,9.1,0000.0,0001.31,0000.96,0000.80
2023-11-28 11:10:00,SystemResetWarning,0831.2,5.00,000.00,018.8,017.8,000.0,027.2,020.0,8.9,0000.0,0001.34,0000.99,0000.82
2023-11-28 11:11:00,SystemResetWarning,0831.2,4.99,000.00,018.8,017.9,000.0,027.2,020.0,9.1,0000.0,0001.51,0001.02,0000.83
2023-11-28 11:12:00,SystemResetWarning,0831.2,5.00,000.00,018.8,017.9,000.0,027.2,020.0,9.3,0000.0,0001.57,0001.06,0000.86
2023-11-28 11:13:00,SystemResetWarning,0831.3,5.00,000.00,018.8,017.9,000.0,027.2,020.0,9.3,0000.0,0001.59,0001.07,0000.89
2023-11-28 11:14:00,SystemResetWarning,0831.3,5.00,000.00,018.8,017.9,000.0,027.2,020.0,9.4,0000.0,0002.21,0001.19,0000.93
2023-11-28 11:15:00,SystemResetWarning,0831.3,5.00,000.00,018.8,017.9,000.0,027.2,020.0,9.4,0000.0,0002.49,0001.28,0000.96
2023-11-28 11:16:00,SystemResetWarning,0831.3,5.00,000.00,018.8,017.9,000.0,027.2,020.0,9.4,0000.0,0002.65,0001.31,0000.98
2023-11-28 11:17:00,SystemResetWarning,0831.3,5.00,000.00,018.8,017.9,000.0,027.2,020.0,9.4,0000.0,0002.74,0001.34,0001.00
2023-11-28 11:18:00,SystemResetWarning,0831.3,5.01,000.00,018.8,018.0,000.0,027.2,020.0,9.4,0000.0,0002.79,0001.38,0001.03
2023-11-28 11:19:00,SystemResetWarning,0831.3,5.01,000.00,018.8,018.0,000.0,027.2,020.0,9.4,0000.0,0002.85,0001.42,0001.05
2023-11-28 11:20:00,SystemResetWarning,0831.3,5.00,000.00,018.8,018.0,000.0,027.2,020.0,9.4,0000.0,0003.37,0001.43,0001.07
2023-11-28 11:21:00,SystemResetWarning,0831.4,5.01,000.00,018.8,018.0,000.0,027.2,020.0,9.4,0000.0,0003.80,0001.45,0001.08
2023-11-28 11:22:00,SystemResetWarning,0831.3,4.99,000.00,018.8,018.0,000.0,027.2,020.0,9.3,0000.0,0003.75,0001.46,0001.09
2023-11-28 11:23:00,SystemResetWarning,0831.3,4.99,000.00,018.8,018.0,000.0,027.2,020.0,9.2,0000.0,0003.67,0001.44,0001.08
2023-11-28 11:24:00,SystemResetWarning,0831.4,5.00,000.00,018.8,018.0,000.0,027.2,020.0,9.2,0000.0,0003.91,0001.44,0001.09
2023-11-28 11:25:00,SystemResetWarning,0831.3,5.01,000.00,018.8,018.0,000.0,027.2,020.0,9.3,0000.0,0004.95,0001.43,0001.09
2023-11-28 11:26:00,SystemResetWarning,0831.3,5.00,000.00,018.8,018.0,000.0,027.2,020.0,9.3,0000.0,0004.72,0001.45,0001.10
2023-11-28 11:27:00,SystemResetWarning,0831.4,5.00,000.00,018.8,018.0,000.0,027.2,020.0,9.3,0000.0,0005.68,0001.46,0001.12
2023-11-28 11:28:00,SystemResetWarning,0831.3,5.00,000.00,018.8,018.0,000.0,027.2,020.0,9.3,0000.0,0005.99,0001.48,0001.13
2023-11-28 11:29:00,SystemResetWarning,0831.3,5.00,000.00,018.8,017.9,000.0,027.2,020.0,9.2,0000.0,0006.12,0001.48,0001.14
2023-11-28 11:30:00,SystemResetWarning,0831.4,4.99,000.00,018.8,017.9,000.0,027.2,020.0,9.2,0000.0,0006.24,0001.52,0001.14
2023-11-28 11:31:00,SystemResetWarning,0831.3,4.99,000.00,018.8,017.9,000.0,027.2,020.0,9.3,0000.0,0005.95,0001.56,0001.16
2023-11-28 11:32:00,SystemResetWarning,0831.3,5.00,000.00,018.8,017.9,000.0,027.2,020.0,9.3,0000.0,0005.56,0001.62,0001.18
2023-11-28 11:33:00,SystemResetWarning,0831.3,5.00,000.00,018.8,017.9,000.0,027.2,020.0,9.3,0000.0,0005.70,0001.68,0001.20
2023-11-28 11:34:00,SystemResetWarning,0831.3,5.00,000.00,018.8,017.9,000.0,027.2,020.0,9.4,0000.0,0005.85,0001.72,0001.23
2023-11-28 11:35:00,SystemResetWarning,0831.4,5.01,000.00,018.8,017.9,000.0,027.2,020.0,9.4,0000.0,0005.98,0001.75,0001.25
2023-11-28 11:36:00,SystemResetWarning,0831.3,5.01,000.00,018.8,017.9,000.0,027.2,020.0,9.3,0000.0,0004.31,0001.70,0001.23
2023-11-28 11:37:00,SystemResetWarning,0831.4,5.00,000.00,018.8,017.9,000.0,027.2,020.0,9.3,0000.0,0004.14,0001.63,0001.22
2023-11-28 11:38:00,SystemResetWarning,0831.4,4.99,000.00,018.8,017.9,000.0,027.2,020.0,9.3,0000.0,0003.48,0001.64,0001.22
2023-11-28 11:39:00,SystemResetWarning,0831.4,4.99,000.00,018.8,017.9,000.0,027.2,020.0,9.3,0000.0,0003.16,0001.68,0001.24
2023-11-28 11:40:00,SystemResetWarning,0831.4,5.00,000.00,018.8,017.9,000.0,027.2,020.0,9.2,0000.0,0003.07,0001.69,0001.24
2023-11-28 11:41:00,SystemResetWarning,0831.3,5.01,000.00,018.8,017.9,000.0,027.2,020.0,9.2,0000.0,0003.06,0001.71,0001.24
2023-11-28 11:42:00,SystemResetWarning,0831.4,5.01,000.00,018.8,017.9,000.0,027.2,020.0,9.3,0000.0,0004.38,0001.72,0001.24
2023-11-28 11:43:00,SystemResetWarning,0831.4,5.01,000.00,018.8,017.9,000.0,027.2,020.0,9.3,0000.0,0004.43,0001.69,0001.23
2023-11-28 11:44:00,SystemResetWarning,0831.4,5.01,000.00,018.8,017.9,000.0,027.2,020.0,9.3,0000.0,0004.42,0001.67,0001.24
2023-11-28 11:45:00,SystemResetWarning,0831.5,4.99,000.00,018.8,017.9,000.0,027.2,020.0,9.3,0000.0,0004.45,0001.69,0001.24
2023-11-28 11:46:00,SystemResetWarning,0831.5,4.99,000.00,018.8,017.9,000.0,027.2,020.0,9.3,0000.0,0004.61,0001.72,0001.24
2023-11-28 11:47:00,SystemResetWarning,0831.5,5.01,000.00,018.8,017.9,000.0,027.2,020.0,9.3,0000.0,0004.63,0001.74,0001.24
2023-11-28 11:48:00,SystemResetWarning,0831.5,5.00,000.00,018.8,017.9,000.0,027.2,020.0,9.3,0000.0,0004.82,0001.77,0001.23
2023-11-28 11:49:00,SystemResetWarning,0831.5,5.00,000.00,018.8,017.9,000.0,027.2,020.0,9.3,0000.0,0005.03,0001.80,0001.23
2023-11-28 11:50:00,SystemResetWarning,0831.5,5.00,000.00,018.8,017.9,000.0,027.2,020.0,9.3,0000.0,0005.25,0001.79,0001.23
2023-11-28 11:51:00,SystemResetWarning,0831.5,5.00,000.00,018.8,017.9,000.0,027.2,020.0,9.3,0000.0,0005.31,0001.77,0001.22
2023-11-28 11:52:00,SystemResetWarning,0831.6,5.00,000.00,018.8,017.9,000.0,027.2,020.0,9.3,0000.0,0005.88,0001.74,0001.22
2023-11-28 11:53:00,SystemResetWarning,0831.6,5.00,000.00,018.8,017.9,000.0,027.2,020.0,9.3,0000.0,0005.01,0001.71,0001.22
2023-11-28 11:54:00,SystemResetWarning,0831.5,4.99,000.00,018.8,017.9,000.0,027.2,020.0,9.3,0000.0,0004.88,0001.71,0001.21
2023-11-28 11:55:00,SystemResetWarning,0831.6,5.01,000.00,018.8,017.9,000.0,027.2,020.0,9.3,0000.0,0004.94,0001.70,0001.20
2023-11-28 11:56:00,SystemResetWarning,0831.6,5.01,000.00,018.8,017.9,000.0,027.2,020.0,9.4,0000.0,0004.89,0001.69,0001.20
2023-11-28 11:57:00,SystemResetWarning,0831.6,5.00,000.00,018.8,017.9,000.0,027.2,020.0,9.4,0000.0,0004.88,0001.71,0001.19
2023-11-28 11:58:00,SystemResetWarning,0831.5,5.00,000.00,018.8,017.9,000.0,027.2,020.0,9.4,0000.0,0005.14,0001.73,0001.19
2023-11-28 11:59:00,SystemResetWarning,0831.5,4.99,000.00,018.8,017.9,000.0,027.2,020.0,9.4,0000.0,0005.21,0001.73,0001.20
